Location: Unspecified
(51.5147°N, 7.4673°E)
Time: 04:09:03
(UTC+01:00)

Explorer 7 - Pass Details

Date: 22 February 2026
Orbit: 430 x 542 km, 50.2° (Epoch: 8 March)

Event Time Altitude Azimuth Distance (km) Brightness Sun altitude
Rises 17:23:41 0° 274° (W) 2,460 11.5 4.2°
Reaches altitude 10° 17:25:48 10° 272° (W) 1,603 10.7 3.9°
Maximum altitude 17:29:23 66° 190° (S) 517 7.0 3.4°
Drops below altitude 10° 17:33:07 10° 107° (ESE) 1,667 8.8 2.8°
Sets 17:35:21 0° 105° (ESE) 2,569 9.7 2.5°
